Location: Corte Bragagnani
(45.3000°N, 11.1000°E)
Time: 06:27:34
(UTC+00:00)

Cosmos 1076 Rocket - Pass Details

Date: 09 April 2020
Orbit: 590 x 612 km, 82.5° (Epoch: 29 May)

Event Time Altitude Azimuth Distance (km) Brightness Sun altitude
Rises 19:39:03 0° 355° (N) 2,849 7.5 -17.8°
Reaches altitude 10° 19:41:19 10° 1° (N) 1,946 6.5 -18.2°
Maximum altitude 19:45:31 52° 78° (ENE) 755 3.7 -18.8°
Enters shadow 19:46:21 44° 117° (ESE) 835 3.7 -18.9°
